Temperature
19 19 18 18 17 17 17 16 16 16 16 15 15 14 14 14 14 14 14 14 14 14 14 14 15 15 15 15 16 16 16 16 16 16 16 15 15 15 15 15 15 15 15
19 19 18 18 17 17 17 16 16 16 16 15 15 15 14 14 14 14 14 14 13 13 13 13 14 14 14 14 15 15 16 16 16 16 16 15 15 15 15 15 15 15 15
19 19 18 18 17 17 17 16 16 16 16 15 15 15 15 14 14 14 14 14 13 13 13 13 13 13 13 14 14 15 15 15 15 15 15 15 15 14 14 14 14 14 14
19 19 18 18 18 17 17 16 16 16 16 15 15 15 15 15 15 14 14 14 13 13 13 13 13 13 13 13 14 14 15 15 15 15 15 15 15 14 14 14 14 14 14
19 18 18 18 18 17 17 17 16 16 16 15 15 15 15 15 15 15 14 14 14 13 13 13 13 13 13 13 13 14 14 14 14 14 14 15 15 15 14 14 14 13 13
19 18 18 18 18 17 17 16 16 16 16 15 15 15 15 15 15 15 15 14 14 14 14 14 14 13 13 14 14 14 14 14 14 14 14 14 15 15 15 14 13 13 13
18 18 18 17 17 17 16 16 16 16 16 15 15 15 15 15 15 15 15 14 14 14 14 14 14 14 14 14 14 14 14 14 14 14 15 15 15 14 14 14 13 13 14
17 17 17 16 16 16 15 15 15 15 15 15 15 15 15 15 15 15 15 15 15 14 14 14 14 14 14 14 14 14 14 14 14 15 15 15 14 14 14 14 14 13 13
15 15 15 15 15 15 15 15 15 15 15 15 15 15 15 15 15 15 15 15 15 15 15 15 15 15 15 14 14 14 14 14 14 14 14 14 14 14 14 14 14 13 13
14 14 14 14 14 14 14 14 14 14 14 14 14 14 14 14 14 15 14 14 14 15 15 15 15 15 14 14 14 14 14 14 14 14 14 14 14 14 14 14 14 13 13
13 13 13 13 13 13 14 14 13 13 13 13 13 13 13 13 14 14 14 14 14 14 14 14 14 14 14 14 14 14 14 14 14 14 14 14 14 14 14 14 13 13 13
12 12 12 12 12 12 12 12 12 12 12 12 12 12 12 12 13 13 13 13 13 13 13 13 13 14 14 14 14 14 13 13 13 13 14 13 13 13 13 13 12 12 12
13 12 12 12 11 11 11 11 11 11 12 12 12 12 12 12 12 12 12 12 12 12 13 13 13 13 13 13 13 13 13 13 13 13 13 13 12 12 12 12 12 12 12
13 13 12 12 11 11 11 11 11 11 12 12 12 12 12 12 12 12 12 12 12 12 12 12 12 12 13 13 13 13 12 12 12 12 12 12 12 12 12 12 12 12 11
14 13 12 12 11 11 11 11 11 11 11 12 12 12 12 11 11 11 11 11 11 11 11 12 12 12 12 12 12 12 12 11 11 11 11 11 11 11 11 11 11 11 11
13 13 12 12 12 11 11 11 11 11 11 11 11 11 11 11 11 11 11 11 11 11 11 11 11 12 12 12 11 11 11 11 11 11 11 11 11 11 11 11 10 10 10
13 13 12 12 12 12 12 11 11 11 11 11 11 11 11 11 11 11 11 11 11 11 11 11 11 11 11 11 11 11 11 11 10 10 10 10 10 10 10 10 10 10 10
13 13 12 12 12 12 12 11 11 11 11 10 10 10 10 11 11 11 11 11 11 11 11 10 10 10 10 10 10 10 10 10 10 10 10 10 10 10 10 10 10 10 10
13 12 12 12 12 12 12 11 11 11 10 10 10 10 10 10 10 10 10 10 10 10 10 10 10 10 10 10 10 10 10 10 10 10 9 9 9 9 9 10 9 9 9
13 12 12 12 12 12 11 11 11 11 10 10 10 10 10 10 10 10 10 10 10 10 10 10 10 9 9 9 9 9 9 9 9 9 9 9 9 9 9 9 9 9 9
13 12 12 12 12 12 11 11 11 11 10 10 10 10 10 10 10 10 10 10 10 10 10 10 10 10 10 9 9 9 9 9 9 9 9 9 9 9 9 9 9 9 9
13 12 12 12 11 11 11 11 11 11 11 10 10 10 10 10 10 10 10 10 10 9 9 9 9 9 9 9 9 9 9 9 9 9 9 9 9 9 8 8 8 8 8
13 12 12 11 11 11 11 11 11 11 10 10 10 10 10 10 10 10 9 9 9 9 9 9 9 9 9 9 9 9 9 9 9 9 9 9 9 8 8 8 8 8 8
13 12 12 11 11 11 11 11 11 11 10 10 10 10 10 10 9 9 9 9 9 9 9 8 8 8 8 8 8 8 8 8 8 8 8 8 8 8 8 8 8 8 8
12 12 11 11 11 11 11 11 11 11 10 10 10 10 9 9 9 9 9 8 8 8 8 8 8 8 8 8 8 8 8 8 8 8 8 8 8 8 8 8 7 7 7
12 12 11 11 11 11 11 11 11 11 10 10 10 9 9 9 8 8 8 8 8 8 8 8 8 8 8 8 8 8 8 8 8 8 8 7 7 7 7 7 7 7 7
Wind_Speed
8 6 6 3 2 4 3 4 4 4 5 5 5 4 5 5 4 4 4 5 7 7 6 7 6 2 4 3 1 2 2 3 5 4 4 5 7 8 7 8 15 14 13
8 7 7 6 5 4 6 6 6 6 6 6 6 6 6 6 5 5 5 5 6 7 7 7 5 3 2 3 2 1 2 3 4 5 4 4 6 9 9 7 10 12 13
8 7 7 7 7 7 6 7 7 7 8 7 7 7 7 7 7 6 5 4 4 4 6 7 7 6 3 1 2 2 2 3 3 3 4 4 3 6 8 7 6 5 11
8 6 6 6 8 7 6 6 6 7 8 8 8 7 7 8 8 7 7 6 6 5 5 6 7 7 6 3 0 1 2 3 4 3 4 3 3 2 6 6 5 4 5
10 7 6 7 6 7 6 5 5 5 6 7 6 7 7 7 8 9 8 8 7 7 7 7 7 9 10 7 4 3 2 2 3 4 5 4 4 3 5 5 6 5 5
9 7 6 4 2 3 4 5 5 5 5 5 5 6 7 7 10 13 10 8 8 9 9 9 9 11 14 15 14 11 8 6 5 6 6 6 7 7 5 5 6 5 5
4 3 1 1 2 2 3 4 5 5 6 5 5 4 5 6 12 13 12 6 7 8 9 9 10 12 15 12 15 17 15 17 15 9 7 8 7 8 9 8 8 8 7
8 6 5 5 4 4 4 5 5 5 5 7 7 6 5 6 11 12 11 6 5 6 8 9 10 10 12 13 12 11 11 12 13 11 9 7 6 6 10 11 9 7 6
9 8 9 9 8 7 6 5 5 5 5 5 5 6 6 6 10 10 9 5 5 6 6 6 5 5 9 14 10 7 6 5 3 6 5 4 4 2 3 5 7 6 5
8 8 8 7 7 7 7 6 5 4 4 4 3 2 2 3 9 10 9 4 4 4 4 2 2 5 5 7 6 5 4 3 4 4 4 4 4 5 6 5 7 6 5
6 6 6 6 5 6 6 5 5 4 4 4 4 3 2 0 6 9 8 3 2 2 3 2 2 7 7 6 2 1 2 1 2 4 3 2 2 2 4 3 2 4 5
4 4 4 5 5 4 4 4 4 3 2 2 2 2 1 0 3 6 7 5 1 1 3 2 3 7 6 5 4 6 5 2 1 2 2 2 2 2 2 2 1 1 1
4 3 4 5 4 3 4 3 3 2 2 2 2 2 2 1 2 3 5 4 2 1 1 5 7 6 5 3 5 5 3 1 1 2 2 2 2 2 1 1 1 1 1
4 3 5 5 4 4 5 6 6 6 6 5 5 5 4 3 3 1 1 3 3 3 3 5 7 5 1 1 5 3 2 1 1 2 2 1 2 2 1 1 1 1 1
3 5 6 5 4 4 5 6 6 6 5 5 5 5 5 4 5 6 3 1 1 1 2 3 3 3 3 3 3 3 2 2 1 1 1 1 2 2 2 2 3 3 3
5 5 4 3 3 2 4 4 8 7 8 9 8 6 4 5 7 4 3 3 4 4 2 1 3 3 4 4 3 2 2 2 2 2 2 2 3 3 3 3 3 4 4
4 4 3 3 1 0 1 3 4 3 5 7 8 9 8 8 6 4 5 5 5 4 1 1 1 1 1 2 2 1 1 2 2 3 3 3 3 3 3 4 4 4 4
3 4 3 3 3 2 2 2 2 2 2 2 4 7 8 8 7 6 4 2 2 2 2 3 4 4 3 3 2 1 1 1 1 1 2 3 3 3 3 3 4 5 5
4 4 4 3 2 2 3 3 3 4 3 3 1 2 3 3 3 4 5 3 3 4 4 5 5 4 4 4 3 2 2 2 2 2 2 2 2 2 3 3 4 5 5
4 4 3 3 2 2 2 3 3 3 3 3 3 3 2 2 2 3 4 5 5 5 5 5 5 5 5 4 4 3 3 3 3 2 2 2 2 2 2 3 3 3 3
3 5 1 2 2 3 3 3 3 3 4 5 5 4 6 4 4 5 5 5 5 5 5 4 4 4 4 4 4 4 4 3 3 3 3 3 3 2 3 3 3 3 3
2 5 3 1 3 4 3 3 3 4 5 5 4 3 5 4 4 4 4 5 5 4 4 4 4 4 4 4 4 4 4 4 4 4 4 3 3 3 3 4 4 4 4
1 4 4 3 3 2 1 3 3 4 4 4 4 3 3 4 5 5 5 5 5 5 5 5 5 5 5 4 4 4 4 5 5 5 5 5 4 3 4 4 5 4 4
2 4 4 3 2 2 2 4 3 4 5 4 4 4 4 4 4 5 5 5 5 6 5 5 6 7 8 6 7 7 7 8 8 6 6 5 5 4 4 3 3 3 3
4 4 3 3 3 2 3 4 4 5 5 4 4 4 4 4 4 5 5 5 6 6 6 5 6 7 8 9 9 9 12 12 10 7 5 4 4 4 3 3 2 2 2
4 5 4 3 3 3 4 4 4 5 5 4 4 4 4 4 4 4 5 5 5 5 6 5 8 10 12 11 11 13 13 12 11 10 6 3 3 3 3 3 3 2 3
Wind_Direction
186 178 142 172 162 151 176 149 150 171 170 185 201 200 177 176 187 196 211 217 222 221 212 198 199 250 296 275 188 180 216 176 188 219 197 177 163 161 162 161 158 171 175
175 167 164 173 169 196 192 173 178 184 184 201 195 199 185 179 180 184 200 206 213 214 200 178 161 158 12 305 302 252 259 258 205 203 201 189 178 171 162 180 182 188 176
169 168 169 178 185 205 210 184 183 185 188 204 203 197 187 176 178 179 178 175 173 175 171 157 139 129 115 12 359 346 306 294 279 207 209 205 201 174 163 186 194 187 173
160 169 183 206 191 196 211 190 187 197 194 202 210 196 183 177 176 177 176 171 165 161 159 150 144 144 152 150 310 329 326 303 289 255 224 206 215 186 166 177 196 196 175
155 175 196 225 202 188 198 185 200 218 213 211 210 197 187 180 185 181 178 183 181 184 188 187 184 183 184 189 206 226 257 276 284 266 238 208 196 187 196 184 189 189 202
157 182 195 216 233 185 191 195 211 218 229 235 219 204 192 195 184 179 179 187 188 195 201 204 205 206 207 211 219 225 223 231 245 253 241 221 208 199 197 194 185 185 210
124 132 151 204 271 265 242 234 224 218 218 240 244 226 206 172 166 175 185 192 201 207 210 209 213 213 210 216 224 232 237 239 235 237 241 230 215 199 196 205 204 199 205
43 32 26 20 1 340 311 285 266 247 229 221 230 236 230 188 181 181 183 206 236 237 225 216 214 215 208 209 217 224 229 233 232 226 230 232 224 205 197 204 205 206 214
36 31 35 33 23 8 349 323 304 290 279 259 239 232 231 204 191 187 177 205 239 256 258 243 224 222 210 199 204 220 233 230 204 179 172 151 140 178 217 189 187 188 203
36 37 38 35 24 8 351 344 341 335 328 330 317 300 260 209 189 192 194 214 244 269 292 280 160 130 124 174 198 212 233 237 165 152 157 173 201 211 211 198 184 185 188
43 42 41 32 29 16 355 357 3 13 14 10 8 8 1 352 176 191 197 217 255 316 327 333 105 128 126 131 121 118 152 108 148 154 163 183 200 194 193 207 189 189 193
55 47 70 60 30 19 5 2 8 23 29 22 12 358 337 347 155 191 200 211 210 336 319 335 117 134 127 117 106 120 110 69 113 138 160 185 195 199 197 199 185 103 130
68 40 75 92 68 29 10 4 6 19 32 39 37 31 16 35 130 180 198 200 177 189 80 100 128 140 134 127 132 131 137 180 158 166 195 201 193 175 141 115 58 51 1
112 78 79 75 70 53 30 20 28 26 25 30 30 20 12 21 37 33 206 186 164 158 138 120 129 134 205 159 148 175 224 231 181 201 219 198 159 155 174 176 170 166 262
91 91 89 86 85 82 70 45 35 51 39 24 15 9 10 14 10 356 2 31 134 152 144 149 163 165 191 189 172 180 185 166 182 258 239 210 197 203 205 193 190 182 196
50 62 69 89 88 106 130 110 60 61 57 52 40 19 7 358 338 351 33 77 90 87 102 212 223 209 194 178 176 182 196 213 218 217 219 225 222 221 217 201 197 201 216
39 57 46 58 70 238 194 153 142 101 67 52 37 27 21 9 22 49 70 79 84 90 103 227 224 141 99 114 134 161 210 224 209 204 217 226 227 229 224 217 211 217 228
55 89 36 33 7 1 19 56 100 133 133 100 50 37 33 36 48 58 43 26 65 65 70 77 75 72 71 72 83 67 348 330 271 248 247 242 227 221 230 234 224 224 234
48 56 45 30 7 33 59 72 79 86 102 112 111 58 31 19 6 355 345 357 46 61 62 64 61 56 50 47 44 33 9 338 314 296 294 289 269 240 238 244 248 249 243
102 84 34 351 354 52 74 83 86 84 87 91 74 40 347 325 356 18 23 32 44 52 56 62 56 45 37 30 21 13 5 354 343 337 322 311 302 291 275 268 260 257 251
149 132 124 316 10 42 62 74 74 83 87 80 74 43 12 27 39 41 40 38 39 40 46 55 59 47 35 25 18 11 6 358 356 347 337 330 329 321 312 291 276 263 256
142 142 156 106 67 46 40 77 80 85 94 91 93 78 35 39 43 45 44 42 43 41 39 44 54 50 37 27 16 7 358 351 347 337 323 311 301 295 291 284 275 256 249
154 116 116 109 107 103 57 93 90 86 94 93 82 69 57 53 48 45 45 38 37 44 41 40 44 39 32 26 26 21 5 351 337 324 317 308 300 290 285 281 278 277 269
150 115 116 128 129 121 99 99 95 88 86 90 91 82 72 65 61 55 53 48 52 53 50 46 46 39 34 29 28 25 10 349 332 319 314 309 307 302 296 291 292 295 295
132 122 127 133 140 136 117 113 106 101 96 88 86 79 70 68 66 63 60 62 66 63 57 51 44 34 23 25 22 8 355 351 347 336 318 312 315 320 324 320 317 313 304
134 129 127 126 136 130 116 117 114 109 103 94 85 76 72 72 69 67 62 57 63 61 51 46 51 42 23 15 9 3 359 357 355 352 337 319 332 345 347 335 319 304 296
Height
1482 1483 1484 1485 1486 1487 1487 1488 1488 1489 1489 1489 1490 1490 1490 1490 1491 1491 1492 1493 1494 1496 1499 1502 1505 1508 1510 1515 1520 1523 1526 1529 1530 1533 1534 1535 1536 1537 1538 1538 1539 1540 1540
1479 1481 1482 1483 1484 1485 1485 1486 1486 1487 1487 1488 1488 1489 1489 1488 1489 1489 1489 1490 1490 1492 1493 1496 1499 1503 1505 1509 1514 1518 1522 1524 1527 1529 1530 1532 1533 1533 1534 1536 1536 1537 1537
1475 1477 1479 1481 1482 1483 1484 1484 1484 1485 1486 1486 1487 1487 1487 1487 1487 1487 1487 1488 1488 1489 1489 1490 1493 1497 1501 1505 1510 1514 1518 1520 1523 1525 1526 1528 1529 1530 1530 1532 1533 1533 1533
1473 1475 1477 1480 1481 1481 1482 1483 1483 1484 1484 1485 1485 1485 1485 1485 1486 1486 1486 1486 1487 1487 1488 1488 1490 1494 1499 1502 1506 1511 1514 1516 1518 1520 1522 1524 1525 1527 1527 1528 1529 1530 1530
1470 1473 1476 1478 1479 1479 1480 1480 1481 1482 1482 1483 1483 1484 1484 1484 1484 1485 1486 1486 1486 1487 1488 1489 1491 1493 1496 1500 1503 1507 1510 1512 1514 1516 1518 1519 1520 1522 1523 1523 1524 1526 1527
1469 1472 1474 1475 1476 1477 1477 1478 1478 1479 1480 1481 1481 1482 1482 1483 1483 1484 1485 1485 1486 1487 1488 1489 1491 1493 1495 1498 1500 1503 1506 1509 1511 1512 1514 1515 1515 1516 1518 1519 1520 1521 1522
1470 1471 1473 1473 1474 1474 1474 1475 1475 1476 1477 1477 1479 1479 1480 1480 1481 1482 1483 1484 1485 1486 1487 1488 1489 1491 1493 1495 1497 1500 1502 1504 1506 1508 1509 1510 1510 1511 1512 1514 1515 1515 1516
1469 1470 1470 1470 1470 1470 1470 1471 1472 1472 1473 1474 1475 1476 1477 1478 1479 1480 1481 1482 1483 1485 1486 1487 1488 1488 1490 1491 1493 1495 1497 1499 1501 1502 1503 1505 1506 1507 1507 1508 1510 1512 1514
1468 1469 1468 1467 1467 1467 1466 1467 1467 1468 1469 1470 1471 1473 1474 1475 1476 1478 1479 1480 1481 1482 1483 1484 1485 1486 1487 1488 1490 1492 1493 1495 1496 1497 1499 1499 1501 1502 1503 1504 1505 1506 1508
1469 1468 1467 1465 1464 1464 1463 1463 1462 1463 1464 1465 1467 1468 1470 1471 1472 1474 1476 1477 1478 1479 1480 1481 1482 1483 1484 1485 1487 1489 1490 1491 1492 1493 1494 1495 1495 1496 1497 1498 1499 1501 1502
1469 1468 1466 1465 1463 1461 1460 1459 1459 1460 1460 1461 1463 1464 1466 1467 1468 1470 1471 1473 1474 1475 1477 1478 1478 1480 1481 1482 1484 1485 1486 1487 1488 1489 1490 1490 1490 1491 1491 1492 1494 1495 1497
1471 1469 1467 1465 1463 1461 1460 1459 1459 1459 1459 1460 1461 1462 1463 1463 1464 1465 1467 1468 1470 1471 1473 1474 1475 1476 1478 1479 1480 1482 1483 1484 1485 1485 1486 1486 1487 1487 1487 1488 1489 1490 1492
1473 1471 1469 1467 1465 1463 1462 1462 1461 1461 1461 1461 1462 1462 1462 1462 1462 1463 1464 1465 1466 1468 1469 1471 1472 1473 1475 1476 1478 1479 1480 1481 1482 1482 1483 1483 1484 1484 1485 1485 1486 1487 1488
1474 1472 1471 1469 1467 1465 1465 1464 1464 1463 1463 1463 1463 1462 1462 1462 1461 1461 1461 1462 1464 1465 1466 1468 1469 1470 1472 1474 1475 1476 1477 1478 1479 1480 1480 1481 1481 1482 1482 1482 1482 1483 1483
1475 1473 1472 1470 1469 1468 1467 1466 1466 1465 1465 1465 1464 1463 1462 1461 1460 1460 1460 1460 1462 1463 1464 1465 1467 1469 1470 1471 1472 1474 1475 1476 1477 1477 1478 1478 1479 1479 1479 1479 1479 1479 1479
1475 1474 1473 1472 1471 1470 1469 1468 1467 1467 1466 1465 1464 1463 1461 1460 1459 1458 1458 1459 1460 1462 1463 1464 1466 1467 1469 1470 1471 1472 1473 1474 1474 1475 1475 1476 1476 1476 1476 1476 1476 1476 1476
1475 1474 1473 1473 1472 1471 1470 1469 1468 1468 1467 1466 1464 1462 1461 1459 1458 1458 1458 1459 1460 1461 1462 1464 1465 1466 1468 1469 1470 1471 1472 1472 1472 1473 1473 1473 1473 1473 1473 1473 1473 1472 1472
1476 1474 1473 1473 1472 1471 1471 1470 1469 1468 1467 1466 1464 1463 1462 1461 1460 1459 1459 1460 1461 1462 1463 1464 1465 1466 1468 1468 1469 1470 1470 1470 1471 1471 1471 1471 1471 1471 1470 1470 1469 1469 1468
1475 1474 1473 1473 1472 1471 1471 1470 1469 1469 1468 1467 1466 1465 1464 1463 1463 1462 1462 1462 1463 1464 1465 1465 1466 1467 1467 1468 1468 1468 1468 1468 1468 1468 1468 1468 1468 1468 1467 1467 1466 1465 1464
1474 1474 1473 1473 1473 1472 1472 1471 1471 1470 1470 1469 1468 1467 1466 1466 1466 1465 1465 1465 1465 1466 1466 1466 1466 1466 1466 1466 1466 1466 1466 1466 1466 1466 1465 1465 1465 1464 1464 1463 1462 1461 1460
1474 1474 1473 1473 1474 1473 1473 1473 1472 1472 1471 1471 1470 1469 1469 1468 1468 1468 1468 1468 1467 1467 1467 1467 1467 1467 1466 1466 1465 1465 1464 1464 1463 1463 1462 1461 1461 1460 1459 1458 1457 1456 1456
1474 1474 1473 1474 1474 1474 1474 1474 1474 1473 1473 1473 1472 1472 1471 1471 1471 1470 1470 1469 1469 1469 1468 1468 1468 1467 1466 1466 1465 1464 1463 1462 1461 1460 1459 1458 1457 1456 1455 1453 1452 1451 1450
1473 1473 1473 1474 1474 1474 1475 1475 1474 1475 1474 1474 1474 1474 1474 1473 1473 1472 1471 1471 1470 1469 1469 1468 1467 1467 1466 1465 1464 1463 1461 1460 1459 1457 1455 1454 1453 1451 1450 1449 1447 1446 1445
1473 1472 1473 1473 1474 1475 1475 1475 1475 1475 1475 1476 1476 1475 1475 1475 1474 1473 1472 1471 1470 1469 1469 1468 1467 1466 1465 1464 1463 1461 1460 1458 1456 1454 1453 1451 1449 1448 1446 1445 1443 1442 1441
1472 1472 1472 1473 1474 1475 1475 1475 1476 1476 1476 1476 1476 1476 1476 1475 1475 1474 1473 1472 1470 1469 1468 1467 1466 1465 1464 1462 1461 1459 1457 1455 1454 1452 1450 1448 1447 1445 1444 1442 1440 1439 1437
1471 1471 1472 1473 1474 1475 1476 1476 1476 1476 1476 1476 1477 1476 1476 1476 1475 1474 1473 1472 1470 1469 1468 1466 1465 1464 1462 1461 1459 1457 1455 1453 1451 1449 1448 1446 1445 1443 1442 1440 1439 1437 1435